Regional Weather Roundup
Issued by NWS

Home | Current Version | Previous Version | Text Only | Print | Product List | Glossary Off
Versions: 1 2 3 4 5 6 7 8 9 10 11 12 13 14 15 16 17 18 19 20 21 22 23 24 25 26 27 28 29 30 31 32 33 34 35 36 37 38 39 40 41 42 43 44 45 46 47 48 49 50

969
ASUS45 KTFX 282310
RWRMT
MONTANA REGIONAL WEATHER ROUNDUP
NATIONAL WEATHER SERVICE GREAT FALLS MT
500 PM MDT WED JUN 28 2017

NOTE: "FAIR" INDICATES FEW OR NO CLOUDS BELOW 12000 FEET WITH NO
SIGNIFICANT WEATHER AND/OR OBSTRUCTIONS TO VISIBILITY.

MTZ001>007-043-290000-
WEST OF THE DIVIDE

CITY           SKY/WX    TMP DP  RH WIND       PRES   REMARKS
KALISPELL      PTSUNNY   74  38  27 SW13      29.76S
MISSOULA       MOSUNNY   75  35  23 NW14G26   29.79S
BUTTE          MOSUNNY   71  28  20 NW10      29.87F
MULLAN PASS    MOSUNNY   59  37  44 VRB5      29.97S
ANACONDA         N/A     73  30  20 W17G23    29.84F
DEER LODGE       N/A     72  34  25 NW21      29.85S
EUREKA           N/A     75  37  25 MISG      29.74S
HAMILTON         N/A     75  34  22 W13G25    29.80F
$$

MTZ008-052>055-290000-
SOUTHWEST MONTANA

CITY           SKY/WX    TMP DP  RH WIND       PRES   REMARKS
BOZEMAN        CLOUDY    65  45  48 S12       29.84F
DILLON         CLOUDY    66  40  38 W15       29.87S
W YELLOWSTONE  CLOUDY    54  37  54 W7G21     30.02R
ENNIS          MOSUNNY   63  41  45 CALM      29.94S
THREE FORKS      N/A     68  49  50 SE2       29.84F
$$

MTZ009-010-012-014-046-048-049-054-290000-
EAST SLOPES AND CENTRAL MONTANA

CITY           SKY/WX    TMP DP  RH WIND       PRES   REMARKS
CUT BANK       PTSUNNY   72  30  21 NW14      29.75R
GREAT FALLS    MOSUNNY   79  29  16 NW15      29.75R
MALMSTROM AFB  MOSUNNY   78  25  14 W14G22    29.74F
HELENA         MOSUNNY   79  29  16 NW16      29.78F
CHOTEAU          N/A     77  32  19 W15G24    29.79S
$$

MTZ011-013-016-021-045-047-050-051-290000-
NORTH CENTRAL MONTANA

CITY           SKY/WX    TMP DP  RH WIND       PRES   REMARKS
HAVRE          MOSUNNY   83  28  13 W12G24    29.67R
LEWISTOWN      CLOUDY    73  28  18 NW14G21   29.78R
N BAR RANCH      N/A     73  27  17 NW12G23   29.82R
CHINOOK          N/A     81  34  18 W10       29.65F
FORT BENTON      N/A     82  28  14 CALM      29.71S
$$

MTZ017>020-022>027-061-062-290000-
NORTHEAST MONTANA

CITY           SKY/WX    TMP DP  RH WIND       PRES   REMARKS
GLASGOW        MOSUNNY   76  43  30 SE21      29.67S
JORDAN           N/A     81  44  27 NE12G22   29.67R
SIDNEY         PTSUNNY   69  44  40 N16       29.75R
WOLF POINT     PTSUNNY   77  44  30 E17       29.69F
MALTA          SUNNY     84  32  15 W17G23    29.65S
PLENTYWOOD       N/A     73  46  38 S13       29.73R
POPLAR           N/A     66  48  52 E18       29.70F
$$

MTZ028>42-056>058-290000-
SOUTHCENTRAL AND SOUTHEAST MONTANA

CITY           SKY/WX    TMP DP  RH WIND       PRES   REMARKS
BAKER          MOSUNNY   81  32  17 SE18      29.72R
BILLINGS       CLOUDY    64  50  60 W14       29.85R
LIVINGSTON     CLOUDY    64  44  48 S7        29.86F
MILES CITY     PTSUNNY   83  37  19 W15G24    29.66R
BIG TIMBER     MOSUNNY   57  46  67 S22G28    29.88F
LAUREL           N/A     65  43  44 W2        29.87R
ROUNDUP          N/A     78  31  18 W16       29.70R
$$

REGIONAL REPORTS...DAKOTAS

CITY           SKY/WX    TMP DP  RH WIND       PRES   REMARKS
WILLISTON      LGT RAIN  70  48  45 NW16G29   29.75R
MINOT          SUNNY     81  44  27 NW17G26   29.68S
DICKINSON      SUNNY     82  32  16 N6        29.72R
BEACH          PTSUNNY   77  36  22 NE9       29.76R
CROSBY           N/A     73  45  35 W8        29.72F
TIOGA            N/A     75  41  29 VRB6      29.75F
WATFORD CITY     N/A     77  45  31 N13       29.72S
BISMARCK       MOSUNNY   82  44  26 N13       29.68F
GRAND FORKS    CLOUDY    68  64  87 N8        29.61R
FARGO          PTSUNNY   71  63  75 NW16      29.59R
BUFFALO SD       N/A     81  25  12 NE5       29.69R
RAPID CITY     TSTM      78  47  33 SW8       29.75R
$$

REGIONAL REPORTS...WYOMING/IDAHO/WASHINGTON

CITY           SKY/WX    TMP DP  RH WIND       PRES   REMARKS
GILLETTE       MOSUNNY   70  50  49 NE20      29.78R
SHERIDAN       CLOUDY    64  50  60 N21G30    29.80R
BUFFALO WY     PTSUNNY   64  42  44 W35G45    29.81R
CODY           PTSUNNY   69  44  40 NE8       29.84R
YELLOWSTONE LA   N/A     48  37  65 NW14G23   30.10R
IDAHO FALLS    CLOUDY    63  50  62 SE14      29.93F
SALMON         PTSUNNY   75  39  27 NW12      29.81R
BOISE          SUNNY     84  25  11 NW16      29.84F
SPOKANE        MOSUNNY   78  41  26 SW13G22   29.82F
$$

REGIONAL REPORTS...ALBERTA

CITY           SKY/WX    TMP DP  RH WIND       PRES   REMARKS
EDMONTON       PTSUNNY   57  54  88 N14       29.79R
CALGARY        PTSUNNY   61  41  48 NW14G24   29.84R
LETHBRIDGE     MOSUNNY   75  36  23 N15G21    29.73R
MEDICINE HAT   LGT RAIN  72  41  33 NW5       29.68R
WATERTON GATE    N/A     68  34  28 W10         N/A
CARDSTON         N/A     70  37  30 N12G18      N/A
ONEFOUR          N/A     75  32  20 NW18G25     N/A
$$

REGIONAL REPORTS...SASKATCHEWAN

CITY           SKY/WX    TMP DP  RH WIND       PRES   REMARKS
SWIFT CURRENT  MOSUNNY   73  45  35 E9G21     29.65F
REGINA         PTSUNNY   72  46  40 W5        29.71S
SASKATOON      PTSUNNY   72  46  40 NW7       29.69S THUNDER
CYPRESS HILLS    N/A     70  34  26 NW8         N/A
VAL MARIE        N/A     79  39  24 S9          N/A
ROCKGLEN         N/A     73  46  38 SE12G17     N/A
$$




USA.gov is the U.S. government's official web portal to all federal, state and local government web resources and services.